Regional Weather Roundup
Issued by NWS

Home | Current Version | Previous Version | Graphics & Text | Print | Product List | Glossary On
Versions: 1 2 3 4 5 6 7 8 9 10 11 12 13 14 15 16 17 18 19 20 21 22 23 24 25 26 27 28 29 30 31 32 33 34 35 36 37 38 39 40 41 42 43 44 45 46 47 48 49 50
000
ASUS43 KLMK 241302
RWRKY
KENTUCKY REGIONAL WEATHER ROUNDUP
NATIONAL WEATHER SERVICE LOUISVILLE KY
900 AM EDT SAT JUN 24 2017

NOTE "FAIR" INDICATES FEW OR NO CLOUDS BELOW 12,000 FEET
WITH NO SIGNIFICANT WEATHER AND/OR OBSTRUCTIONS TO VISIBILITY.

KYZ001>023-026-027-061>063-070>075-241400-
WESTERN AND SOUTH CENTRAL KENTUCKY

CITY           SKY/WX    TMP DP  RH WIND       PRES   REMARKS
PADUCAH        SUNNY     71  59  65 N8        30.06R
HENDERSON      SUNNY     69  59  70 NW9       30.05R
OWENSBORO      SUNNY     70  62  76 NW8       30.04R
HOPKINSVILLE   MOSUNNY   69  63  81 NW6       30.05R
BOWLING GREEN  MOSUNNY   71  65  81 VRB5      30.03R
GLASGOW        NOT AVBL
$$

KYZ024-025-028>034-038-045-046-053-241400-
NORTH CENTRAL KENTUCKY

CITY           SKY/WX    TMP DP  RH WIND       PRES   REMARKS
LOUISVILLE/SDF PTSUNNY   71  61  70 NW6       30.00R
LOUISVILLE/LOU MOSUNNY   70  63  78 NW7       30.01R
FORT KNOX      MOSUNNY   67  67 100 W5        30.01R
$$

KYZ035>037-039>044-047>052-055>060-089>105-241400-
NORTHEAST KENTUCKY

CITY           SKY/WX    TMP DP  RH WIND       PRES   REMARKS
LEXINGTON      MOSUNNY   69  63  81 NW7       30.01R
COVINGTON      MOSUNNY   67  61  81 NW8       29.97R
FRANKFORT      MOSUNNY   68  62  81 NW6       29.99R
$$

KYZ054-064>069-076>088-106>120-241400-
SOUTHEAST KENTUCKY

CITY           SKY/WX    TMP DP  RH WIND       PRES   REMARKS
JACKSON        PTSUNNY   67  65  93 VRB5      30.00R
LONDON         MOSUNNY   70  66  87 NW7       30.01R
SOMERSET       MOSUNNY   70  68  94 CALM      30.02R
MIDDLESBORO    CLOUDY    68  68  98 CALM      30.01R
MONTICELLO     MOSUNNY   74  69  85 W6        30.03R
$$





USA.gov is the U.S. government's official web portal to all federal, state and local government web resources and services.